カタログに戻る

FREGAT R/B

運用中HEO
NORAD 38996·ROCKET BODY·🇷🇺 Russia

打ち上げ Nov 14, 2012 から Plesetsk Cosmodrome

Loading…

次のパス (今後24時間)

TLE

最新Source: Space-Track

元期: Sep 14, 2026, 13:03 UTC

1 38996U 12063B   26257.54393501 -.00000308  00000-0  00000-0 0  9991
2 38996  63.9895 344.3506 7358504 229.5407  38.9023  2.00211536101101

AllMySatでFREGAT R/Bをリアルタイム追跡

Download on the App Store